| time (UTC) | temp F | wind direction | speed MPH | gust MPH | rain 1hr in | rain 24hr in | rain mn in | humidity % | barometer mb |
| 20260904163807 | 84 | 170 | 1.0 | 5.0 | 0.00 | 0.00 | 0.00 | 78 | 1015.2 |
| 20260904163537 | 84 | 168 | 1.0 | 5.0 | 0.00 | 0.00 | 0.00 | 79 | 1015.3 |
| 20260904162800 | 83 | 144 | 1.0 | 6.0 | 0.00 | 0.00 | 0.00 | 79 | 1015.2 |
| 20260904162253 | 83 | 144 | 1.0 | 6.0 | 0.00 | 0.00 | 0.00 | 79 | 1015.3 |
| 20260904161747 | 83 | 200 | 1.0 | 6.0 | 0.00 | 0.00 | 0.00 | 80 | 1015.3 |
| 20260904161241 | 83 | 182 | 1.0 | 6.0 | 0.00 | 0.00 | 0.00 | 80 | 1015.3 |
| 20260904160735 | 83 | 190 | 1.0 | 4.0 | 0.00 | 0.00 | 0.00 | 81 | 1015.2 |
| 20260904160230 | 82 | 191 | 2.0 | 4.0 | 0.00 | 0.00 | 0.00 | 81 | 1015.0 |
| 20260904155724 | 82 | 167 | 2.0 | 6.0 | 0.00 | 0.00 | 0.00 | 82 | 1015.1 |
| 20260904155449 | 82 | 167 | 2.0 | 6.0 | 0.00 | 0.00 | 0.00 | 82 | 1015.0 |
| 20260904154943 | 82 | 176 | 1.0 | 5.0 | 0.00 | 0.00 | 0.00 | 82 | 1015.2 |
| 20260904154206 | 82 | 184 | 1.0 | 3.0 | 0.00 | 0.00 | 0.00 | 82 | 1015.3 |
| 20260904153700 | 82 | 184 | 1.0 | 7.0 | 0.00 | 0.00 | 0.00 | 82 | 1015.2 |
| 20260904153154 | 82 | 185 | 2.0 | 7.0 | 0.00 | 0.00 | 0.00 | 82 | 1015.2 |
| 20260904152648 | 81 | 173 | 1.0 | 5.0 | 0.00 | 0.00 | 0.00 | 82 | 1015.1 |
| 20260904152142 | 81 | 173 | 1.0 | 5.0 | 0.00 | 0.00 | 0.00 | 82 | 1015.1 |
| 20260904151638 | 81 | 236 | 1.0 | 6.0 | 0.00 | 0.00 | 0.00 | 83 | 1015.0 |
| 20260904151139 | 81 | 181 | 1.0 | 6.0 | 0.00 | 0.00 | 0.00 | 83 | 1015.1 |
| 20260904150638 | 81 | 201 | 1.0 | 3.0 | 0.00 | 0.00 | 0.00 | 83 | 1015.1 |
| 20260904150139 | 81 | 201 | 1.0 | 5.0 | 0.00 | 0.00 | 0.00 | 83 | 1015.1 |
| 20260904145908 | 81 | 203 | 0.0 | 5.0 | 0.00 | 0.00 | 0.00 | 83 | 1015.2 |
| 20260904145137 | 81 | 177 | 0.0 | 3.0 | 0.00 | 0.00 | 0.00 | 83 | 1015.1 |
| 20260904144637 | 81 | 176 | 1.0 | 3.0 | 0.00 | 0.00 | 0.00 | 83 | 1015.2 |
| 20260904144136 | 81 | 177 | 0.0 | 3.0 | 0.00 | 0.00 | 0.00 | 83 | 1015.3 |
| 20260904143637 | 81 | 189 | 1.0 | 3.0 | 0.00 | 0.00 | 0.00 | 84 | 1015.2 |
| 20260904143138 | 81 | 189 | 1.0 | 4.0 | 0.00 | 0.00 | 0.00 | 84 | 1015.2 |
| 20260904142638 | 81 | 190 | 1.0 | 4.0 | 0.00 | 0.00 | 0.00 | 84 | 1015.2 |
| 20260904142136 | 81 | 182 | 1.0 | 6.0 | 0.00 | 0.00 | 0.00 | 84 | 1015.2 |
| 20260904141637 | 81 | 182 | 1.0 | 6.0 | 0.00 | 0.00 | 0.00 | 84 | 1015.1 |
| 20260904141138 | 80 | 182 | 2.0 | 6.0 | 0.00 | 0.00 | 0.00 | 84 | 1015.2 |
| 20260904140633 | 80 | 175 | 2.0 | 6.0 | 0.00 | 0.00 | 0.00 | 85 | 1015.1 |
| 20260904140404 | 80 | 173 | 2.0 | 6.0 | 0.00 | 0.00 | 0.00 | 85 | 1015.1 |
| 20260904135633 | 80 | 171 | 1.0 | 6.0 | 0.00 | 0.00 | 0.00 | 85 | 1015.0 |
| 20260904135132 | 80 | 167 | 1.0 | 4.0 | 0.00 | 0.00 | 0.00 | 85 | 1015.0 |
| 20260904134634 | 80 | 167 | 1.0 | 4.0 | 0.00 | 0.00 | 0.00 | 85 | 1015.0 |
| 20260904134133 | 80 | 167 | 1.0 | 6.0 | 0.00 | 0.00 | 0.00 | 85 | 1015.0 |
| 20260904133634 | 80 | 166 | 0.0 | 6.0 | 0.00 | 0.00 | 0.00 | 85 | 1014.9 |
| 20260904133133 | 80 | 155 | 0.0 | 3.0 | 0.00 | 0.00 | 0.00 | 85 | 1014.8 |
| 20260904132633 | 80 | 155 | 1.0 | 3.0 | 0.00 | 0.00 | 0.00 | 85 | 1014.9 |
| 20260904132130 | 80 | 154 | 1.0 | 3.0 | 0.00 | 0.00 | 0.00 | 85 | 1014.8 |
| 20260904131629 | 80 | 154 | 1.0 | 3.0 | 0.00 | 0.00 | 0.00 | 85 | 1014.8 |
| 20260904131128 | 80 | 154 | 1.0 | 5.0 | 0.00 | 0.00 | 0.00 | 85 | 1014.8 |
| 20260904130628 | 80 | 154 | 2.0 | 5.0 | 0.00 | 0.00 | 0.00 | 85 | 1014.8 |
| 20260904130130 | 80 | 155 | 2.0 | 5.0 | 0.00 | 0.00 | 0.00 | 85 | 1014.8 |
| 20260904125859 | 80 | 155 | 2.0 | 5.0 | 0.00 | 0.00 | 0.00 | 85 | 1014.9 |
| 20260904125128 | 80 | 155 | 2.0 | 5.0 | 0.00 | 0.00 | 0.00 | 85 | 1014.8 |
| 20260904124628 | 80 | 148 | 2.0 | 5.0 | 0.00 | 0.00 | 0.00 | 85 | 1014.6 |
| 20260904124400 | 80 | 148 | 2.0 | 7.0 | 0.00 | 0.00 | 0.00 | 85 | 1014.6 |
| 20260904123629 | 80 | 147 | 3.0 | 7.0 | 0.00 | 0.00 | 0.00 | 85 | 1014.5 |
| 20260904123122 | 80 | 135 | 3.0 | 9.0 | 0.00 | 0.00 | 0.00 | 85 | 1014.3 |
| 20260904122847 | 80 | 170 | 3.0 | 9.0 | 0.00 | 0.00 | 0.00 | 85 | 1014.4 |
| 20260904122109 | 80 | 153 | 3.0 | 7.0 | 0.00 | 0.00 | 0.00 | 85 | 1014.3 |
| 20260904121603 | 80 | 156 | 3.0 | 8.0 | 0.00 | 0.00 | 0.00 | 85 | 1014.2 |
| 20260904121057 | 80 | 157 | 4.0 | 8.0 | 0.00 | 0.00 | 0.00 | 85 | 1014.2 |
| 20260904120552 | 80 | 150 | 3.0 | 8.0 | 0.00 | 0.00 | 0.00 | 85 | 1014.0 |
| 20260904120045 | 80 | 137 | 4.0 | 9.0 | 0.00 | 0.00 | 0.00 | 85 | 1013.9 |
| 20260904115539 | 80 | 138 | 5.0 | 10.0 | 0.00 | 0.00 | 0.00 | 85 | 1013.9 |
| 20260904115032 | 80 | 142 | 5.0 | 10.0 | 0.00 | 0.00 | 0.00 | 85 | 1013.9 |
| 20260904114527 | 80 | 148 | 5.0 | 10.0 | 0.00 | 0.00 | 0.00 | 85 | 1013.9 |
| 20260904114021 | 80 | 156 | 4.0 | 9.0 | 0.00 | 0.00 | 0.00 | 84 | 1014.0 |
| 20260904113515 | 80 | 159 | 4.0 | 9.0 | 0.00 | 0.00 | 0.00 | 84 | 1013.9 |
| 20260904113009 | 80 | 148 | 4.0 | 9.0 | 0.00 | 0.00 | 0.00 | 84 | 1014.0 |
| 20260904112503 | 80 | 150 | 4.0 | 8.0 | 0.00 | 0.00 | 0.00 | 84 | 1014.0 |
| 20260904111957 | 80 | 155 | 3.0 | 7.0 | 0.00 | 0.00 | 0.00 | 84 | 1013.8 |
| 20260904111451 | 80 | 141 | 3.0 | 7.0 | 0.00 | 0.00 | 0.00 | 84 | 1013.8 |
| 20260904110945 | 80 | 140 | 3.0 | 8.0 | 0.00 | 0.00 | 0.00 | 84 | 1013.7 |
| 20260904110439 | 80 | 150 | 4.0 | 8.0 | 0.00 | 0.00 | 0.00 | 84 | 1013.7 |
| 20260904105932 | 80 | 130 | 3.0 | 8.0 | 0.00 | 0.00 | 0.00 | 84 | 1013.6 |
| 20260904105426 | 80 | 151 | 3.0 | 8.0 | 0.00 | 0.00 | 0.00 | 84 | 1013.6 |
| 20260904105152 | 80 | 153 | 3.0 | 8.0 | 0.00 | 0.00 | 0.00 | 84 | 1013.6 |
| 20260904104416 | 80 | 150 | 2.0 | 7.0 | 0.00 | 0.00 | 0.00 | 84 | 1013.5 |
| 20260904104140 | 80 | 138 | 2.0 | 5.0 | 0.00 | 0.00 | 0.00 | 83 | 1013.4 |
| 20260904103635 | 80 | 140 | 3.0 | 7.0 | 0.00 | 0.00 | 0.00 | 83 | 1013.4 |
| 20260904102857 | 80 | 134 | 2.0 | 7.0 | 0.00 | 0.00 | 0.00 | 83 | 1013.4 |
| 20260904102350 | 80 | 144 | 2.0 | 5.0 | 0.00 | 0.00 | 0.00 | 83 | 1013.4 |
| 20260904101844 | 80 | 143 | 2.0 | 5.0 | 0.00 | 0.00 | 0.00 | 83 | 1013.4 |
| 20260904101339 | 80 | 148 | 2.0 | 6.0 | 0.00 | 0.00 | 0.00 | 83 | 1013.4 |
| 20260904101103 | 80 | 148 | 2.0 | 6.0 | 0.00 | 0.00 | 0.00 | 83 | 1013.3 |
| 20260904100327 | 80 | 151 | 2.0 | 5.0 | 0.00 | 0.00 | 0.00 | 83 | 1013.4 |
| 20260904095821 | 80 | 153 | 2.0 | 6.0 | 0.00 | 0.00 | 0.00 | 83 | 1013.4 |
| 20260904095314 | 80 | 158 | 2.0 | 5.0 | 0.00 | 0.00 | 0.00 | 83 | 1013.3 |
| 20260904094809 | 80 | 159 | 2.0 | 5.0 | 0.00 | 0.00 | 0.00 | 83 | 1013.3 |
| 20260904094303 | 80 | 156 | 2.0 | 5.0 | 0.00 | 0.00 | 0.00 | 83 | 1013.3 |
| 20260904093757 | 80 | 159 | 2.0 | 5.0 | 0.00 | 0.00 | 0.00 | 82 | 1013.3 |
| 20260904093251 | 80 | 158 | 2.0 | 5.0 | 0.00 | 0.00 | 0.00 | 82 | 1013.3 |
| 20260904092744 | 80 | 158 | 2.0 | 5.0 | 0.00 | 0.00 | 0.00 | 82 | 1013.2 |
| 20260904092239 | 80 | 160 | 2.0 | 6.0 | 0.00 | 0.00 | 0.00 | 82 | 1013.3 |
| 20260904091733 | 80 | 160 | 2.0 | 6.0 | 0.00 | 0.00 | 0.00 | 82 | 1013.3 |
| 20260904091227 | 80 | 156 | 3.0 | 7.0 | 0.00 | 0.00 | 0.00 | 82 | 1013.1 |
| 20260904090721 | 80 | 159 | 3.0 | 7.0 | 0.00 | 0.00 | 0.00 | 82 | 1013.1 |
| 20260904090215 | 80 | 177 | 2.0 | 6.0 | 0.00 | 0.00 | 0.00 | 82 | 1013.2 |
| 20260904085708 | 80 | 169 | 1.0 | 4.0 | 0.00 | 0.00 | 0.00 | 82 | 1013.1 |
| 20260904085203 | 80 | 167 | 1.0 | 5.0 | 0.00 | 0.00 | 0.00 | 82 | 1013.2 |
| 20260904084657 | 80 | 165 | 2.0 | 5.0 | 0.00 | 0.00 | 0.00 | 82 | 1013.2 |
| 20260904084150 | 80 | 167 | 2.0 | 6.0 | 0.00 | 0.00 | 0.00 | 82 | 1013.2 |
| 20260904083644 | 81 | 179 | 2.0 | 6.0 | 0.00 | 0.00 | 0.00 | 82 | 1013.3 |
| 20260904083139 | 81 | 175 | 2.0 | 4.0 | 0.00 | 0.00 | 0.00 | 82 | 1013.4 |
| 20260904082639 | 81 | 177 | 2.0 | 6.0 | 0.00 | 0.00 | 0.00 | 82 | 1013.4 |
| 20260904082139 | 81 | 181 | 2.0 | 6.0 | 0.00 | 0.00 | 0.00 | 81 | 1013.4 |
| 20260904081639 | 81 | 153 | 3.0 | 7.0 | 0.00 | 0.00 | 0.00 | 81 | 1013.3 |
| 20260904081409 | 81 | 154 | 2.0 | 7.0 | 0.00 | 0.00 | 0.00 | 81 | 1013.3 |
| 20260904080639 | 81 | 150 | 3.0 | 8.0 | 0.00 | 0.00 | 0.00 | 81 | 1013.2 |
| 20260904080139 | 81 | 174 | 4.0 | 10.0 | 0.00 | 0.00 | 0.00 | 81 | 1013.2 |
| 20260904075639 | 81 | 163 | 3.0 | 10.0 | 0.00 | 0.00 | 0.00 | 81 | 1013.2 |
| 20260904075137 | 81 | 181 | 3.0 | 8.0 | 0.00 | 0.00 | 0.00 | 81 | 1013.3 |
| 20260904074633 | 81 | 142 | 3.0 | 7.0 | 0.00 | 0.00 | 0.00 | 81 | 1013.4 |
| 20260904074131 | 81 | 156 | 3.0 | 7.0 | 0.00 | 0.00 | 0.00 | 81 | 1013.3 |
| 20260904073633 | 81 | 157 | 3.0 | 8.0 | 0.00 | 0.00 | 0.00 | 81 | 1013.4 |
| 20260904073132 | 81 | 165 | 4.0 | 11.0 | 0.00 | 0.00 | 0.00 | 81 | 1013.5 |
| 20260904072630 | 81 | 150 | 4.0 | 11.0 | 0.00 | 0.00 | 0.00 | 81 | 1013.5 |
| 20260904072130 | 81 | 171 | 3.0 | 9.0 | 0.00 | 0.00 | 0.00 | 81 | 1013.4 |
| 20260904071630 | 81 | 181 | 4.0 | 10.0 | 0.00 | 0.00 | 0.00 | 81 | 1013.4 |
| 20260904071130 | 81 | 154 | 4.0 | 10.0 | 0.00 | 0.00 | 0.00 | 81 | 1013.6 |
| 20260904070631 | 81 | 142 | 3.0 | 7.0 | 0.00 | 0.00 | 0.00 | 80 | 1013.6 |
| 20260904070131 | 81 | 150 | 3.0 | 7.0 | 0.00 | 0.00 | 0.00 | 80 | 1013.6 |
| 20260904065625 | 81 | 140 | 3.0 | 7.0 | 0.00 | 0.00 | 0.00 | 80 | 1013.7 |
| 20260904065351 | 81 | 152 | 3.0 | 9.0 | 0.00 | 0.00 | 0.00 | 80 | 1013.8 |
| 20260904064843 | 81 | 125 | 3.0 | 9.0 | 0.00 | 0.00 | 0.00 | 79 | 1013.8 |
| 20260904064106 | 81 | 168 | 3.0 | 7.0 | 0.00 | 0.00 | 0.00 | 79 | 1013.9 |
| 20260904063601 | 81 | 194 | 4.0 | 8.0 | 0.00 | 0.00 | 0.00 | 79 | 1013.8 |
| 20260904063101 | 81 | 155 | 4.0 | 8.0 | 0.00 | 0.00 | 0.00 | 79 | 1013.7 |
| 20260904062600 | 81 | 159 | 3.0 | 9.0 | 0.00 | 0.00 | 0.00 | 79 | 1013.7 |
| 20260904062101 | 81 | 165 | 4.0 | 11.0 | 0.00 | 0.00 | 0.00 | 78 | 1013.6 |
| 20260904061601 | 81 | 159 | 4.0 | 11.0 | 0.00 | 0.00 | 0.00 | 78 | 1013.6 |
| 20260904061100 | 81 | 172 | 4.0 | 9.0 | 0.00 | 0.00 | 0.00 | 78 | 1013.7 |
| 20260904060600 | 81 | 169 | 4.0 | 9.0 | 0.00 | 0.00 | 0.00 | 78 | 1013.7 |
| 20260904060100 | 81 | 158 | 4.0 | 9.0 | 0.00 | 0.00 | 0.00 | 78 | 1013.7 |
| 20260904055600 | 81 | 140 | 4.0 | 9.0 | 0.00 | 0.00 | 0.00 | 78 | 1013.7 |
| 20260904055100 | 81 | 164 | 4.0 | 10.0 | 0.00 | 0.00 | 0.00 | 77 | 1013.8 |
| 20260904054601 | 81 | 178 | 4.0 | 10.0 | 0.00 | 0.00 | 0.00 | 77 | 1013.7 |
| 20260904054101 | 81 | 168 | 4.0 | 9.0 | 0.00 | 0.00 | 0.00 | 77 | 1013.5 |
| 20260904053601 | 81 | 145 | 4.0 | 11.0 | 0.00 | 0.00 | 0.00 | 77 | 1013.5 |
| 20260904053330 | 81 | 142 | 4.0 | 11.0 | 0.00 | 0.00 | 0.00 | 77 | 1013.5 |
| 20260904052600 | 81 | 162 | 4.0 | 10.0 | 0.00 | 0.00 | 0.00 | 77 | 1013.4 |
| 20260904052059 | 81 | 179 | 5.0 | 10.0 | 0.00 | 0.00 | 0.00 | 77 | 1013.4 |
| 20260904051833 | 81 | 151 | 5.0 | 10.0 | 0.00 | 0.00 | 0.00 | 77 | 1013.4 |
| 20260904051058 | 81 | 127 | 5.0 | 10.0 | 0.00 | 0.00 | 0.00 | 77 | 1013.4 |
| 20260904050557 | 81 | 142 | 5.0 | 10.0 | 0.00 | 0.00 | 0.00 | 77 | 1013.4 |
| 20260904050058 | 81 | 146 | 5.0 | 11.0 | 0.00 | 0.00 | 0.00 | 77 | 1013.4 |
| 20260904045553 | 81 | 146 | 4.0 | 11.0 | 0.00 | 0.00 | 0.00 | 77 | 1013.4 |
| 20260904045046 | 81 | 138 | 4.0 | 10.0 | 0.00 | 0.00 | 0.00 | 77 | 1013.5 |
| 20260904044541 | 81 | 152 | 5.0 | 10.0 | 0.00 | 0.00 | 0.00 | 77 | 1013.3 |
| 20260904044035 | 81 | 142 | 5.0 | 9.0 | 0.00 | 0.00 | 0.00 | 76 | 1013.3 |
| 20260904043759 | 81 | 157 | 4.0 | 12.0 | 0.00 | 0.00 | 0.00 | 76 | 1013.5 |
| 20260904043023 | 81 | 142 | 4.0 | 12.0 | 0.00 | 0.00 | 0.00 | 76 | 1013.4 |
| 20260904042748 | 81 | 124 | 5.0 | 9.0 | 0.00 | 0.00 | 0.00 | 76 | 1013.4 |
| 20260904042011 | 81 | 115 | 5.0 | 10.0 | 0.00 | 0.00 | 0.00 | 76 | 1013.5 |
| 20260904041505 | 81 | 142 | 5.0 | 10.0 | 0.00 | 0.00 | 0.00 | 76 | 1013.4 |
| 20260904040958 | 81 | 150 | 6.0 | 10.0 | 0.00 | 0.00 | 0.00 | 76 | 1013.4 |
| 20260904040453 | 82 | 149 | 6.0 | 11.0 | 0.00 | 0.00 | 0.00 | 75 | 1013.3 |
| 20260904035947 | 82 | 140 | 6.0 | 12.0 | 0.00 | 0.00 | 0.00 | 75 | 1013.2 |
| 20260904035441 | 82 | 154 | 6.0 | 12.0 | 0.00 | 0.00 | 0.00 | 75 | 1013.1 |
| 20260904034935 | 82 | 148 | 6.0 | 12.0 | 0.00 | 0.00 | 0.00 | 75 | 1013.2 |
| 20260904034429 | 82 | 93 | 5.0 | 13.0 | 0.00 | 0.00 | 0.00 | 74 | 1013.2 |
| 20260904033922 | 82 | 120 | 5.0 | 13.0 | 0.00 | 0.00 | 0.00 | 74 | 1013.2 |
| 20260904033417 | 82 | 130 | 6.0 | 14.0 | 0.00 | 0.00 | 0.00 | 74 | 1013.2 |
| 20260904032910 | 82 | 144 | 6.0 | 14.0 | 0.00 | 0.00 | 0.00 | 74 | 1013.1 |
| 20260904032404 | 82 | 127 | 6.0 | 12.0 | 0.00 | 0.00 | 0.00 | 73 | 1013.0 |
| 20260904031859 | 83 | 163 | 7.0 | 15.0 | 0.00 | 0.00 | 0.00 | 73 | 1012.9 |
| 20260904031353 | 83 | 121 | 8.0 | 15.0 | 0.00 | 0.00 | 0.00 | 73 | 1012.8 |
| 20260904030846 | 83 | 135 | 7.0 | 14.0 | 0.00 | 0.00 | 0.00 | 72 | 1012.9 |
| 20260904030341 | 83 | 159 | 7.0 | 14.0 | 0.00 | 0.00 | 0.00 | 72 | 1012.9 |
| 20260904030105 | 83 | 140 | 7.0 | 13.0 | 0.00 | 0.00 | 0.00 | 72 | 1012.9 |
| 20260904025328 | 83 | 163 | 6.0 | 11.0 | 0.00 | 0.00 | 0.00 | 71 | 1012.8 |
| 20260904024823 | 83 | 127 | 7.0 | 13.0 | 0.00 | 0.00 | 0.00 | 71 | 1012.6 |
| 20260904024818 | 83 | 152 | 8.0 | 15.0 | 0.00 | 0.00 | 0.00 | 71 | 1012.6 |
| 20260904023813 | 84 | 119 | 7.0 | 18.0 | 0.00 | 0.00 | 0.00 | 70 | 1012.6 |
| 20260904023314 | 84 | 169 | 7.0 | 17.0 | 0.00 | 0.00 | 0.00 | 70 | 1012.5 |
| 20260904022813 | 84 | 173 | 7.0 | 17.0 | 0.00 | 0.00 | 0.00 | 70 | 1012.5 |
| 20260904022314 | 84 | 116 | 6.0 | 16.0 | 0.00 | 0.00 | 0.00 | 69 | 1012.5 |
| 20260904022045 | 84 | 112 | 7.0 | 16.0 | 0.00 | 0.00 | 0.00 | 69 | 1012.4 |
| 20260904021315 | 84 | 155 | 6.0 | 13.0 | 0.00 | 0.00 | 0.00 | 68 | 1012.3 |
| 20260904020815 | 85 | 140 | 5.0 | 13.0 | 0.00 | 0.00 | 0.00 | 68 | 1012.3 |
| 20260904020319 | 85 | 147 | 7.0 | 15.0 | 0.00 | 0.00 | 0.00 | 67 | 1012.2 |
| 20260904020314 | 85 | 157 | 5.0 | 14.0 | 0.00 | 0.00 | 0.00 | 68 | 1012.3 |
| 20260904015315 | 85 | 137 | 7.0 | 15.0 | 0.00 | 0.00 | 0.00 | 67 | 1012.1 |
| 20260904014810 | 85 | 59 | 6.0 | 14.0 | 0.00 | 0.00 | 0.00 | 67 | 1011.7 |
| 20260904014541 | 85 | 116 | 6.0 | 14.0 | 0.00 | 0.00 | 0.00 | 66 | 1011.8 |
| 20260904013810 | 85 | 134 | 5.0 | 11.0 | 0.00 | 0.00 | 0.00 | 66 | 1011.7 |
| 20260904013311 | 86 | 152 | 5.0 | 14.0 | 0.00 | 0.00 | 0.00 | 66 | 1011.5 |
| 20260904012810 | 86 | 133 | 5.0 | 14.0 | 0.00 | 0.00 | 0.00 | 66 | 1011.4 |
| 20260904012540 | 86 | 186 | 4.0 | 12.0 | 0.00 | 0.00 | 0.00 | 65 | 1011.5 |
| 20260904011809 | 86 | 130 | 4.0 | 12.0 | 0.00 | 0.00 | 0.00 | 65 | 1011.5 |
| 20260904011311 | 86 | 139 | 4.0 | 10.0 | 0.00 | 0.00 | 0.00 | 65 | 1011.5 |
| 20260904010811 | 86 | 128 | 5.0 | 12.0 | 0.00 | 0.00 | 0.00 | 64 | 1011.5 |
| 20260904010305 | 87 | 150 | 6.0 | 12.0 | 0.00 | 0.00 | 0.00 | 64 | 1011.5 |
| 20260904005805 | 87 | 138 | 5.0 | 13.0 | 0.00 | 0.00 | 0.00 | 64 | 1011.5 |
| 20260904005306 | 87 | 134 | 6.0 | 15.0 | 0.00 | 0.00 | 0.00 | 64 | 1011.6 |
| 20260904004805 | 87 | 75 | 6.0 | 15.0 | 0.00 | 0.00 | 0.00 | 64 | 1011.5 |
| 20260904004304 | 87 | 201 | 5.0 | 15.0 | 0.00 | 0.00 | 0.00 | 63 | 1011.6 |
| 20260904003801 | 87 | 150 | 5.0 | 14.0 | 0.00 | 0.00 | 0.00 | 63 | 1011.6 |
| 20260904003301 | 88 | 165 | 5.0 | 14.0 | 0.00 | 0.00 | 0.00 | 63 | 1011.6 |
| 20260904002801 | 88 | 144 | 5.0 | 12.0 | 0.00 | 0.00 | 0.00 | 63 | 1011.4 |
| 20260904002301 | 88 | 140 | 5.0 | 10.0 | 0.00 | 0.00 | 0.00 | 63 | 1011.4 |
| 20260904001801 | 88 | 129 | 5.0 | 14.0 | 0.00 | 0.00 | 0.00 | 63 | 1011.4 |
| 20260904001532 | 88 | 111 | 6.0 | 14.0 | 0.00 | 0.00 | 0.00 | 63 | 1011.5 |
| 20260904000802 | 89 | 132 | 7.0 | 13.0 | 0.00 | 0.00 | 0.00 | 62 | 1011.5 |
| 20260904000303 | 89 | 125 | 8.0 | 17.0 | 0.00 | 0.00 | 0.00 | 62 | 1011.4 |
| 20260903235801 | 89 | 150 | 8.0 | 17.0 | 0.00 | 0.00 | 0.00 | 62 | 1011.5 |
| 20260903235305 | 89 | 109 | 8.0 | 18.0 | 0.00 | 0.00 | 0.00 | 61 | 1011.6 |
| 20260903234755 | 90 | 150 | 8.0 | 18.0 | 0.00 | 0.00 | 0.00 | 60 | 1011.5 |
| 20260903234250 | 90 | 170 | 6.0 | 16.0 | 0.00 | 0.00 | 0.00 | 60 | 1011.4 |
| 20260903233744 | 90 | 148 | 6.0 | 14.0 | 0.00 | 0.00 | 0.00 | 60 | 1011.3 |
| 20260903233238 | 90 | 138 | 8.0 | 21.0 | 0.00 | 0.00 | 0.00 | 62 | 1011.3 |
| 20260903232731 | 91 | 175 | 8.0 | 21.0 | 0.00 | 0.00 | 0.00 | 61 | 1011.3 |
| 20260903232226 | 91 | 125 | 7.0 | 16.0 | 0.00 | 0.00 | 0.00 | 61 | 1011.2 |
| 20260903231951 | 91 | 91 | 7.0 | 16.0 | 0.00 | 0.00 | 0.00 | 61 | 1011.2 |
| 20260903231445 | 91 | 124 | 7.0 | 16.0 | 0.00 | 0.00 | 0.00 | 61 | 1011.2 |
| 20260903230707 | 92 | 132 | 8.0 | 16.0 | 0.00 | 0.00 | 0.00 | 61 | 1011.2 |
| 20260903230202 | 92 | 86 | 8.0 | 16.0 | 0.00 | 0.00 | 0.00 | 61 | 1011.1 |
| 20260903225656 | 93 | 109 | 8.0 | 17.0 | 0.00 | 0.00 | 0.00 | 59 | 1011.0 |
| 20260903225150 | 94 | 144 | 8.0 | 18.0 | 0.00 | 0.00 | 0.00 | 55 | 1010.8 |
| 20260903224643 | 94 | 189 | 7.0 | 18.0 | 0.00 | 0.00 | 0.00 | 53 | 1010.8 |
| 20260903224138 | 94 | 126 | 6.0 | 16.0 | 0.00 | 0.00 | 0.00 | 51 | 1010.6 |
| 20260903223902 | 94 | 140 | 6.0 | 16.0 | 0.00 | 0.00 | 0.00 | 51 | 1010.5 |
| 20260903223126 | 94 | 159 | 6.0 | 17.0 | 0.00 | 0.00 | 0.00 | 51 | 1010.5 |
| 20260903222851 | 94 | 170 | 6.0 | 17.0 | 0.00 | 0.00 | 0.00 | 51 | 1010.5 |
| 20260903222114 | 95 | 12 | 7.0 | 16.0 | 0.00 | 0.00 | 0.00 | 51 | 1010.4 |
| 20260903221608 | 95 | 167 | 7.0 | 16.0 | 0.00 | 0.00 | 0.00 | 51 | 1010.5 |
| 20260903221102 | 95 | 149 | 7.0 | 16.0 | 0.00 | 0.00 | 0.00 | 50 | 1010.5 |
| 20260903220556 | 96 | 155 | 7.0 | 16.0 | 0.00 | 0.00 | 0.00 | 50 | 1010.5 |
| 20260903220321 | 97 | 134 | 7.0 | 16.0 | 0.00 | 0.00 | 0.00 | 49 | 1010.3 |
| 20260903215545 | 97 | 104 | 6.0 | 15.0 | 0.00 | 0.00 | 0.00 | 48 | 1010.4 |
| 20260903215038 | 98 | 161 | 6.0 | 15.0 | 0.00 | 0.00 | 0.00 | 47 | 1010.4 |
| 20260903214805 | 98 | 136 | 6.0 | 15.0 | 0.00 | 0.00 | 0.00 | 46 | 1010.4 |
| 20260903214026 | 99 | 144 | 6.0 | 15.0 | 0.00 | 0.00 | 0.00 | 45 | 1010.3 |
| 20260903213522 | 99 | 178 | 4.0 | 13.0 | 0.00 | 0.00 | 0.00 | 46 | 1010.3 |
| 20260903213517 | 99 | 167 | 5.0 | 13.0 | 0.00 | 0.00 | 0.00 | 47 | 1010.4 |
| 20260903212507 | 99 | 114 | 6.0 | 13.0 | 0.00 | 0.00 | 0.00 | 46 | 1010.4 |
| 20260903212001 | 100 | 142 | 5.0 | 12.0 | 0.00 | 0.00 | 0.00 | 46 | 1010.6 |
| 20260903211456 | 100 | 102 | 4.0 | 11.0 | 0.00 | 0.00 | 0.00 | 47 | 1010.5 |
| 20260903210950 | 100 | 135 | 4.0 | 10.0 | 0.00 | 0.00 | 0.00 | 46 | 1010.5 |
| 20260903210444 | 100 | 143 | 5.0 | 10.0 | 0.00 | 0.00 | 0.00 | 45 | 1010.6 |
| 20260903205938 | 101 | 118 | 4.0 | 10.0 | 0.00 | 0.00 | 0.00 | 45 | 1010.7 |
| 20260903205432 | 101 | 109 | 4.0 | 13.0 | 0.00 | 0.00 | 0.00 | 46 | 1010.8 |
| 20260903204925 | 102 | 145 | 4.0 | 13.0 | 0.00 | 0.00 | 0.00 | 44 | 1010.8 |
| 20260903204650 | 102 | 302 | 3.0 | 8.0 | 0.00 | 0.00 | 0.00 | 45 | 1010.8 |
| 20260903203914 | 101 | 194 | 4.0 | 9.0 | 0.00 | 0.00 | 0.00 | 44 | 1010.9 |
| 20260903203408 | 101 | 148 | 3.0 | 10.0 | 0.00 | 0.00 | 0.00 | 44 | 1011.1 |
| 20260903202901 | 101 | 144 | 3.0 | 10.0 | 0.00 | 0.00 | 0.00 | 46 | 1011.2 |
| 20260903202627 | 101 | 101 | 4.0 | 8.0 | 0.00 | 0.00 | 0.00 | 44 | 1011.3 |
| 20260903202122 | 102 | 126 | 4.0 | 10.0 | 0.00 | 0.00 | 0.00 | 44 | 1011.3 |
| 20260903201343 | 102 | 153 | 3.0 | 10.0 | 0.00 | 0.00 | 0.00 | 45 | 1011.3 |
| 20260903201108 | 103 | 141 | 2.0 | 10.0 | 0.00 | 0.00 | 0.00 | 43 | 1011.4 |
| 20260903200332 | 103 | 164 | 3.0 | 10.0 | 0.00 | 0.00 | 0.00 | 43 | 1011.5 |
| 20260903195826 | 103 | 169 | 3.0 | 8.0 | 0.00 | 0.00 | 0.00 | 44 | 1011.4 |
| 20260903195320 | 102 | 143 | 3.0 | 9.0 | 0.00 | 0.00 | 0.00 | 45 | 1011.4 |
| 20260903194813 | 102 | 180 | 3.0 | 9.0 | 0.00 | 0.00 | 0.00 | 45 | 1011.4 |
| 20260903194308 | 102 | 165 | 3.0 | 9.0 | 0.00 | 0.00 | 0.00 | 45 | 1011.5 |
| 20260903193802 | 102 | 181 | 3.0 | 9.0 | 0.00 | 0.00 | 0.00 | 45 | 1011.7 |
| 20260903193256 | 103 | 127 | 2.0 | 9.0 | 0.00 | 0.00 | 0.00 | 44 | 1011.7 |
| 20260903192749 | 103 | 110 | 3.0 | 11.0 | 0.00 | 0.00 | 0.00 | 44 | 1011.8 |
| 20260903192244 | 102 | 189 | 3.0 | 11.0 | 0.00 | 0.00 | 0.00 | 45 | 1011.8 |
| 20260903191738 | 102 | 176 | 3.0 | 10.0 | 0.00 | 0.00 | 0.00 | 46 | 1011.8 |
| 20260903191231 | 102 | 125 | 3.0 | 10.0 | 0.00 | 0.00 | 0.00 | 45 | 1012.1 |
| 20260903190726 | 102 | 144 | 2.0 | 8.0 | 0.00 | 0.00 | 0.00 | 46 | 1012.1 |
| 20260903190219 | 101 | 127 | 3.0 | 8.0 | 0.00 | 0.00 | 0.00 | 48 | 1012.2 |
| 20260903185946 | 101 | 113 | 3.0 | 11.0 | 0.00 | 0.00 | 0.00 | 47 | 1012.4 |
| 20260903185212 | 100 | 135 | 3.0 | 11.0 | 0.00 | 0.00 | 0.00 | 46 | 1012.5 |
| 20260903184944 | 101 | 59 | 4.0 | 13.0 | 0.00 | 0.00 | 0.00 | 47 | 1012.6 |
| 20260903184211 | 101 | 199 | 4.0 | 13.0 | 0.00 | 0.00 | 0.00 | 47 | 1012.8 |
| 20260903183942 | 101 | 113 | 4.0 | 10.0 | 0.00 | 0.00 | 0.00 | 47 | 1012.9 |
| 20260903183212 | 101 | 119 | 3.0 | 9.0 | 0.00 | 0.00 | 0.00 | 47 | 1012.8 |
| 20260903182943 | 101 | 30 | 4.0 | 10.0 | 0.00 | 0.00 | 0.00 | 50 | 1012.9 |
| 20260903182210 | 101 | 168 | 4.0 | 11.0 | 0.00 | 0.00 | 0.00 | 49 | 1013.1 |
| 20260903181716 | 100 | 121 | 2.0 | 8.0 | 0.00 | 0.00 | 0.00 | 49 | 1013.1 |
| 20260903181711 | 100 | 169 | 3.0 | 11.0 | 0.00 | 0.00 | 0.00 | 49 | 1013.0 |
| 20260903180711 | 99 | 185 | 3.0 | 8.0 | 0.00 | 0.00 | 0.00 | 48 | 1013.2 |
| 20260903180211 | 98 | 179 | 2.0 | 6.0 | 0.00 | 0.00 | 0.00 | 47 | 1013.3 |
| 20260903175712 | 98 | 16 | 2.0 | 6.0 | 0.00 | 0.00 | 0.00 | 50 | 1013.3 |
| 20260903175212 | 97 | 197 | 3.0 | 7.0 | 0.00 | 0.00 | 0.00 | 51 | 1013.4 |
| 20260903174711 | 97 | 201 | 3.0 | 10.0 | 0.00 | 0.00 | 0.00 | 53 | 1013.5 |
| 20260903174212 | 97 | 115 | 3.0 | 10.0 | 0.00 | 0.00 | 0.00 | 53 | 1013.5 |
| 20260903173710 | 96 | 111 | 3.0 | 9.0 | 0.00 | 0.00 | 0.00 | 53 | 1013.5 |
| 20260903173210 | 96 | 148 | 3.0 | 11.0 | 0.00 | 0.00 | 0.00 | 54 | 1013.5 |
| 20260903172711 | 96 | 150 | 3.0 | 11.0 | 0.00 | 0.00 | 0.00 | 56 | 1013.6 |
| 20260903172211 | 96 | 178 | 3.0 | 11.0 | 0.00 | 0.00 | 0.00 | 54 | 1013.7 |
| 20260903171711 | 95 | 135 | 2.0 | 11.0 | 0.00 | 0.00 | 0.00 | 55 | 1013.7 |
| 20260903171211 | 95 | 193 | 3.0 | 11.0 | 0.00 | 0.00 | 0.00 | 54 | 1013.7 |
| 20260903170710 | 94 | 134 | 3.0 | 11.0 | 0.00 | 0.00 | 0.00 | 54 | 1013.8 |
| 20260903170441 | 94 | 180 | 3.0 | 8.0 | 0.00 | 0.00 | 0.00 | 54 | 1013.8 |
| 20260903165941 | 94 | 192 | 2.0 | 8.0 | 0.00 | 0.00 | 0.00 | 55 | 1013.8 |
| 20260903165211 | 93 | 205 | 3.0 | 10.0 | 0.00 | 0.00 | 0.00 | 56 | 1013.8 |
| 20260903164711 | 93 | 173 | 4.0 | 10.0 | 0.00 | 0.00 | 0.00 | 57 | 1013.9 |
| 20260903164210 | 93 | 200 | 4.0 | 10.0 | 0.00 | 0.00 | 0.00 | 57 | 1013.9 |